Time,TemperatureF,DewpointF,PressureIn,WindDirection,WindDirectionDegrees,WindSpeedMPH,WindSpeedGustMPH,Humidity,HourlyPrecipIn,Conditions,Clouds,dailyrainin,SoftwareType,DateUTC
2013-01-01 17:28:00,19.3,9.8,30.21,WNW,285,1.0,1.0,66,0.00,,,0.00,Wunderground v.1.15,2013-01-01 23:28:00,
2013-01-01 17:29:00,19.2,9.7,30.22,West,270,1.0,1.0,66,0.00,,,0.00,Wunderground v.1.15,2013-01-01 23:29:00,
2013-01-01 17:30:00,19.1,9.6,30.22,NNW,330,1.0,1.0,66,0.00,,,0.00,Wunderground v.1.15,2013-01-01 23:30:00,
2013-01-01 17:35:00,18.9,9.7,30.22,NW,314,0.0,1.0,67,0.00,,,0.00,Wunderground v.1.15,2013-01-01 23:35:00,
2013-01-01 17:41:00,18.7,9.6,30.23,WNW,283,0.0,1.0,67,0.00,,,0.00,Wunderground v.1.15,2013-01-01 23:41:00,
2013-01-01 17:46:00,18.5,9.4,30.23,WNW,289,0.0,1.0,67,0.00,,,0.00,Wunderground v.1.15,2013-01-01 23:46:00,
2013-01-01 17:51:00,18.4,9.6,30.23,WNW,294,0.0,1.0,68,0.00,,,0.00,Wunderground v.1.15,2013-01-01 23:51:00,
2013-01-01 17:56:00,18.2,9.7,30.23,NW,316,0.0,1.0,69,0.00,,,0.00,Wunderground v.1.15,2013-01-01 23:56:00,
2013-01-01 18:01:00,18.1,9.6,30.23,West,280,0.0,1.0,69,0.00,,,0.00,Wunderground v.1.15,2013-01-02 00:01:00,
2013-01-01 18:07:00,17.9,9.8,30.23,WNW,291,0.0,1.0,70,0.00,,,0.00,Wunderground v.1.15,2013-01-02 00:07:00,
2013-01-01 18:12:00,17.7,9.6,30.24,WNW,302,0.0,1.0,70,0.00,,,0.00,Wunderground v.1.15,2013-01-02 00:12:00,
2013-01-01 18:17:00,17.5,9.7,30.24,West,260,0.0,1.0,71,0.00,,,0.00,Wunderground v.1.15,2013-01-02 00:17:00,
2013-01-01 18:22:00,17.4,9.6,30.24,West,274,0.0,1.0,71,0.00,,,0.00,Wunderground v.1.15,2013-01-02 00:22:00,
2013-01-01 18:27:00,17.3,9.5,30.24,West,277,0.0,1.0,71,0.00,,,0.00,Wunderground v.1.15,2013-01-02 00:27:00,
2013-01-01 18:33:00,17.2,9.4,30.24,West,280,0.0,1.0,71,0.00,,,0.00,Wunderground v.1.15,2013-01-02 00:33:00,
2013-01-01 18:38:00,17.0,9.5,30.24,West,278,0.0,1.0,72,0.00,,,0.00,Wunderground v.1.15,2013-01-02 00:38:00,
2013-01-01 18:43:00,16.7,9.5,30.24,West,278,0.0,0.0,73,0.00,,,0.00,Wunderground v.1.15,2013-01-02 00:43:00,
2013-01-01 18:48:00,16.5,9.4,30.24,West,271,0.0,0.0,73,0.00,,,0.00,Wunderground v.1.15,2013-01-02 00:48:00,
2013-01-01 18:53:00,16.3,9.5,30.24,West,276,0.0,1.0,74,0.00,,,0.00,Wunderground v.1.15,2013-01-02 00:53:00,
2013-01-01 18:59:00,16.2,9.4,30.24,West,276,0.0,1.0,74,0.00,,,0.00,Wunderground v.1.15,2013-01-02 00:59:00,
2013-01-01 19:04:00,16.0,9.2,30.24,West,276,0.0,2.0,74,0.00,,,0.00,Wunderground v.1.15,2013-01-02 01:04:00,
2013-01-01 19:09:00,15.9,9.4,30.24,West,276,0.0,2.0,75,0.00,,,0.00,Wunderground v.1.15,2013-01-02 01:09:00,
2013-01-01 19:14:00,15.9,9.4,30.24,West,277,0.0,1.0,75,0.00,,,0.00,Wunderground v.1.15,2013-01-02 01:14:00,
2013-01-01 19:19:00,15.8,9.3,30.24,West,277,0.0,1.0,75,0.00,,,0.00,Wunderground v.1.15,2013-01-02 01:19:00,
2013-01-01 19:24:00,15.6,9.4,30.24,WNW,293,0.0,0.0,76,0.00,,,0.00,Wunderground v.1.15,2013-01-02 01:24:00,
2013-01-01 19:29:00,15.5,9.3,30.24,West,276,0.0,1.0,76,0.00,,,0.00,Wunderground v.1.15,2013-01-02 01:29:00,
2013-01-01 19:34:00,15.5,9.3,30.24,West,274,0.0,1.0,76,0.00,,,0.00,Wunderground v.1.15,2013-01-02 01:34:00,
2013-01-01 19:39:00,15.5,9.3,30.24,West,278,0.0,1.0,76,0.00,,,0.00,Wunderground v.1.15,2013-01-02 01:39:00,
2013-01-01 19:44:00,15.5,9.0,30.24,WNW,284,1.0,1.0,75,0.00,,,0.00,Wunderground v.1.15,2013-01-02 01:44:00,
2013-01-01 19:49:00,15.4,9.2,30.24,WNW,293,1.0,1.0,76,0.00,,,0.00,Wunderground v.1.15,2013-01-02 01:49:00,
2013-01-01 19:55:00,15.1,9.2,30.23,WNW,287,0.0,1.0,77,0.00,,,0.00,Wunderground v.1.15,2013-01-02 01:55:00,
2013-01-01 20:00:00,15.0,9.1,30.23,West,278,0.0,1.0,77,0.00,,,0.00,Wunderground v.1.15,2013-01-02 02:00:00,
2013-01-01 20:06:00,15.0,8.8,30.24,WNW,284,1.0,1.0,76,0.00,,,0.00,Wunderground v.1.15,2013-01-02 02:06:00,
2013-01-01 20:11:00,14.8,8.9,30.24,West,281,1.0,1.0,77,0.00,,,0.00,Wunderground v.1.15,2013-01-02 02:11:00,
2013-01-01 20:17:00,14.8,8.6,30.24,West,280,1.0,1.0,76,0.00,,,0.00,Wunderground v.1.15,2013-01-02 02:17:00,
2013-01-01 20:22:00,14.7,8.8,30.24,West,276,1.0,1.0,77,0.00,,,0.00,Wunderground v.1.15,2013-01-02 02:22:00,
2013-01-01 20:27:00,14.6,8.7,30.24,West,277,0.0,1.0,77,0.00,,,0.00,Wunderground v.1.15,2013-01-02 02:27:00,
2013-01-01 20:32:00,14.4,8.5,30.24,WNW,295,0.0,1.0,77,0.00,,,0.00,Wunderground v.1.15,2013-01-02 02:32:00,
2013-01-01 20:37:00,14.4,8.5,30.24,WNW,285,0.0,1.0,77,0.00,,,0.00,Wunderground v.1.15,2013-01-02 02:37:00,
2013-01-01 20:43:00,14.2,8.6,30.24,WNW,285,0.0,0.0,78,0.00,,,0.00,Wunderground v.1.15,2013-01-02 02:43:00,
2013-01-01 20:48:00,14.1,8.5,30.24,NW,305,0.0,0.0,78,0.00,,,0.00,Wunderground v.1.15,2013-01-02 02:48:00,
2013-01-01 20:53:00,13.9,8.6,30.24,NW,316,0.0,2.0,79,0.00,,,0.00,Wunderground v.1.15,2013-01-02 02:53:00,
2013-01-01 20:58:00,13.8,8.5,30.24,NW,312,0.0,2.0,79,0.00,,,0.00,Wunderground v.1.15,2013-01-02 02:58:00,
2013-01-01 21:03:00,13.6,8.3,30.24,NW,311,0.0,1.0,79,0.00,,,0.00,Wunderground v.1.15,2013-01-02 03:03:00,
2013-01-01 21:09:00,13.3,8.3,30.24,NW,312,0.0,1.0,80,0.00,,,0.00,Wunderground v.1.15,2013-01-02 03:09:00,
2013-01-01 21:14:00,13.3,8.3,30.24,NW,312,0.0,1.0,80,0.00,,,0.00,Wunderground v.1.15,2013-01-02 03:14:00,
2013-01-01 21:19:00,13.2,8.2,30.24,WNW,283,0.0,1.0,80,0.00,,,0.00,Wunderground v.1.15,2013-01-02 03:19:00,
2013-01-01 21:24:00,13.2,7.9,30.24,West,281,1.0,2.0,79,0.00,,,0.00,Wunderground v.1.15,2013-01-02 03:24:00,
2013-01-01 21:29:00,13.2,7.9,30.24,West,280,1.0,2.0,79,0.00,,,0.00,Wunderground v.1.15,2013-01-02 03:29:00,
2013-01-01 21:35:00,13.0,7.7,30.24,West,281,0.0,1.0,79,0.00,,,0.00,Wunderground v.1.15,2013-01-02 03:35:00,
2013-01-01 21:40:00,12.8,7.8,30.23,West,281,0.0,0.0,80,0.00,,,0.00,Wunderground v.1.15,2013-01-02 03:40:00,
2013-01-01 21:45:00,12.6,7.6,30.23,West,281,0.0,0.0,80,0.00,,,0.00,Wunderground v.1.15,2013-01-02 03:45:00,
2013-01-01 21:50:00,12.5,7.5,30.24,West,276,0.0,0.0,80,0.00,,,0.00,Wunderground v.1.15,2013-01-02 03:50:00,
2013-01-01 21:55:00,12.2,7.2,30.23,West,276,0.0,0.0,80,0.00,,,0.00,Wunderground v.1.15,2013-01-02 03:55:00,
2013-01-01 22:01:00,12.1,7.4,30.24,West,276,0.0,0.0,81,0.00,,,0.00,Wunderground v.1.15,2013-01-02 04:01:00,
2013-01-01 22:06:00,12.0,7.3,30.24,West,276,0.0,0.0,81,0.00,,,0.00,Wunderground v.1.15,2013-01-02 04:06:00,
2013-01-01 22:11:00,11.8,7.1,30.24,West,276,0.0,0.0,81,0.00,,,0.00,Wunderground v.1.15,2013-01-02 04:11:00,
2013-01-01 22:16:00,11.5,6.8,30.24,West,276,0.0,0.0,81,0.00,,,0.00,Wunderground v.1.15,2013-01-02 04:16:00,
2013-01-01 22:21:00,11.2,6.8,30.24,West,276,0.0,0.0,82,0.00,,,0.00,Wunderground v.1.15,2013-01-02 04:21:00,
2013-01-01 22:27:00,11.0,6.6,30.24,West,276,0.0,0.0,82,0.00,,,0.00,Wunderground v.1.15,2013-01-02 04:27:00,
2013-01-01 22:32:00,10.6,6.2,30.24,West,276,0.0,0.0,82,0.00,,,0.00,Wunderground v.1.15,2013-01-02 04:32:00,
2013-01-01 22:37:00,10.3,6.2,30.24,West,276,0.0,0.0,83,0.00,,,0.00,Wunderground v.1.15,2013-01-02 04:37:00,
2013-01-01 22:42:00,10.2,6.3,30.24,West,276,0.0,0.0,84,0.00,,,0.00,Wunderground v.1.15,2013-01-02 04:42:00,
2013-01-01 22:47:00,10.2,6.3,30.24,West,276,0.0,0.0,84,0.00,,,0.00,Wunderground v.1.15,2013-01-02 04:47:00,
2013-01-01 22:53:00,10.0,6.1,30.24,West,276,0.0,0.0,84,0.00,,,0.00,Wunderground v.1.15,2013-01-02 04:53:00,
2013-01-01 22:58:00,10.4,6.8,30.25,West,272,0.0,0.0,85,0.00,,,0.00,Wunderground v.1.15,2013-01-02 04:58:00,
2013-01-01 23:00:00,10.7,7.1,30.25,West,274,0.0,0.0,85,0.00,,,0.00,Wunderground v.1.15,2013-01-02 05:00:00,
2013-01-01 23:02:00,10.9,7.3,30.25,West,274,0.0,1.0,85,0.00,,,0.00,Wunderground v.1.15,2013-01-02 05:02:00,
2013-01-01 23:03:00,11.0,7.4,30.25,West,278,0.0,1.0,85,0.00,,,0.00,Wunderground v.1.15,2013-01-02 05:03:00,
2013-01-01 23:08:00,11.6,7.7,30.25,West,276,0.0,1.0,84,0.00,,,0.00,Wunderground v.1.15,2013-01-02 05:08:00,
2013-01-01 23:13:00,12.0,7.6,30.25,West,280,1.0,2.0,82,0.00,,,0.00,Wunderground v.1.15,2013-01-02 05:13:00,
2013-01-01 23:19:00,12.3,7.6,30.25,West,278,0.0,2.0,81,0.00,,,0.00,Wunderground v.1.15,2013-01-02 05:19:00,
2013-01-01 23:24:00,12.2,7.5,30.24,West,272,0.0,0.0,81,0.00,,,0.00,Wunderground v.1.15,2013-01-02 05:24:00,
2013-01-01 23:29:00,12.3,7.6,30.24,West,276,0.0,2.0,81,0.00,,,0.00,Wunderground v.1.15,2013-01-02 05:29:00,
2013-01-01 23:34:00,12.4,7.7,30.24,WNW,283,1.0,1.0,81,0.00,,,0.00,Wunderground v.1.15,2013-01-02 05:34:00,
2013-01-01 23:39:00,12.3,7.6,30.24,West,273,0.0,1.0,81,0.00,,,0.00,Wunderground v.1.15,2013-01-02 05:39:00,
2013-01-01 23:45:00,12.3,7.6,30.24,West,276,0.0,1.0,81,0.00,,,0.00,Wunderground v.1.15,2013-01-02 05:45:00,
2013-01-01 23:50:00,12.1,7.7,30.25,West,266,0.0,1.0,82,0.00,,,0.00,Wunderground v.1.15,2013-01-02 05:50:00,
2013-01-01 23:55:00,12.1,7.7,30.25,WNW,293,0.0,2.0,82,0.00,,,0.00,Wunderground v.1.15,2013-01-02 05:55:00,